(511780) = 2015 EM8

Discovered at Mount Lemmon on 2013-10-26 by Mt. Lemmon Survey.

Orbit

Orbit type: Main Belt

Note: WebGL enabled browser required.

epoch2024-03-31.0
epoch JD2460400.5
perihelion date2020-02-04.35426
perihelion JD2458883.85426
argument of perihelion (°)225.48390
ascending node (°)334.83648
inclination (°)3.64341
eccentricity0.0609118
perihelion distance (AU)2.5400200
Tisserand w.r.t. Jupiter3.4
ΔV w.r.t. Earth (km/sec)10.0
semimajor axis (AU)2.7047727
mean anomaly (°)336.04067
mean daily motion (°/day)0.22156830
aphelion distance (AU)2.870
period (years)4.45
P-vector [x]-0.93715264
P-vector [y]-0.29939245
P-vector [z]-0.17919010
Q-vector [x]0.34787187
Q-vector [y]-0.84148398
Q-vector [z]-0.41338828
absolute magnitude17.39
phase slope0.15
uncertainty0
referenceMPEC 2024-F14
observations used151
oppositions10
arc length (days)5654
first opposition used2008
last opposition used2024
residual rms (arc-secs)0.84
perturbers coarse indicatorM-v
perturbers precise indicator003Ek
first observation date used2008-09-23.0
last observation date used2024-03-17.0
computer nameMPCLINUX
JD of orbit computation2458131.560451
perihelion JD uncertainty (days)2.6772E-04
argument of perihelion uncertainty (°)8.3023E-05
ascending node uncertainty (°)6.2394E-05
inclination uncertainty (°)8.7522E-06
eccentricity uncertainty 9.0553E-08
perihelion distance uncertainty (AU)2.6414E-07
Minimum Orbit Intersection Distances (in AU)
for orbit epoch: 2460400.5, reference: E2024-G51
Mercury2.10279
Venus1.82296
Earth1.53915
Mars0.90263
Jupiter2.09606
Saturn6.27822
Uranus15.8645
Neptune26.9669

Observations

153 total observations over interval: 2008 09 23.30980 – 2024 03 17.454750
These data are available for download (format description).

